Погода в Икше

Россия / Московская область     56°10′23″N   37°30′01″E
темп.,
°C
ветер,
м/с
пор.,
м/с
влажн.,
%
обл.,
%
осадки,
мм/ч
давл.,
гПа
погр.,
м
16 апреля, пт
пт1600:00+8св6148980 0.0 1019513
03:00+7всв61390100 0.0 1019469
06:00+7всв61289100 0.0 1020487
09:00+9всв6980100 0.2 1021517
12:00+13всв6862100 0.1 1021819
15:00+15в7957100 0.1 10211207
18:00+13всв71167100 0.0 1021931
21:00+9всв71481100 0.0 1022623
17 апреля, сб
сб1700:00+8всв61485100 0.3 1022575
03:00+7всв5118797 0.4 1023421
06:00+6всв5118689 0.3 1024421
09:00+8всв6974100 0.3 1023516
12:00+13всв795885 0.0 1023889
15:00+15всв8105086 0.0 10221232
18:00+13всв7115593 0.0 10221032
21:00+9всв7145551 0.0 1023651
18 апреля, вс
вс1800:00+7всв6155890 0.0 1023573
03:00+6всв51265100 0.0 1023475
06:00+6в51267100 0.0 1023562
09:00+7в61162100 0.0 1023717
12:00+9вюв6954100 0.1 10231247
15:00+10вюв61054100 0.3 10241493
18:00+8юв4875100 0.1 1024854
21:00+6вюв31082100 0.3 1025505
19 апреля, пн
пн1900:00+7в51179100 0.0 1025985
03:00+6всв51081100 0.0 1025744
06:00+5в5988100 0.1 1025899
09:00+5в5984100 0.2 1026802
12:00+5в61082100 0.1 1026609
15:00+6в61078100 0.1 1026672
18:00+6в61175100 0.0 1026689
21:00+6в61379100 0.0 1025758
20 апреля, вт
вт2000:00+6в71368100 0.0 1024816
03:00+4в7156997 0.0 1023520
06:00+3в71676100 0.0 1021568
09:00+5в81672100 0.0 1018724
12:00+7в91671100 0.0 1016942
15:00+7в101978100 0.6 10121232
18:00+6вюв112188100 4.4 10091339
21:00+6вюв112289100 6.9 10061333